Weather in Whakatane

New Zealand     37°57′06″S   176°59′43″E
temp.,
°C
wind,
m/s
gust,
m/s
humid.,
%
clouds,
%
prec.,
mm/h
press.,
hPa
HPBL,
m
8 december, wed
wed801:00+17w1192100 0.4 102365
04:00+17sw119599 0.1 102277
07:00+17ssw1194100 0.2 102281
10:00+21nnw227036 0.1 1022952
13:00+22n436614 0.1 1020842
16:00+22n446721 0.0 1020871
19:00+20nnw347420 0.0 1020644
22:00+17n118993 0.0 102128
9 december, thu
thu901:00+16s119449 0.0 102041
04:00+15sse129681 0.0 101864
07:00+16ssw12935 0.0 1018101
10:00+22nnw226215 0.0 1018737
13:00+23n4462100 0.0 1016790
16:00+23n456464 0.0 1015716
19:00+20nne2581100 0.0 1015501
22:00+18e2395100 0.0 101689
10 december, fri
fri1001:00+18se129590 0.0 1016103
04:00+17sw119577 0.0 101552
07:00+16sw2393100 0.0 101699
10:00+23wnw1351100 0.0 1016769
13:00+24n445125 0.0 1015900
16:00+23n455558 0.0 1014626
19:00+21ne347398 0.0 1015457
22:00+18ene129099 0.0 101731
11 december, sat
sat1101:00+17ese239667 0.0 101793
04:00+16sse2296100 0.0 101674
07:00+17sse1290100 0.0 1017106
10:00+22ene1172100 0.0 1018660
13:00+22n4467100 0.0 1017954
16:00+21n3471100 0.0 1017733
19:00+20nne2481100 0.0 1016540
22:00+18nnw129646 0.4 101873
12 december, sun
sun1201:00+18nw129786 0.7 1017103
04:00+18s1194100 0.1 101655
07:00+17ssw119431 0.1 101769
10:00+22n126356 0.0 1018865
13:00+23n4360100 0.0 10171089
16:00+23n346343 0.0 1017832
19:00+18nw1294100 0.6 101888
22:00+18ese1194100 0.8 102046